Weather History for Midland, MI

Change the Weather History Date:

Wednesday, November 21, 2012

  Actual Average (KMBS) Record (KMBS)
Temperature  
Mean Temperature 44 °F 36 °F  
Max Temperature 56 °F 43 °F 55 °F (2010)
Min Temperature 31 °F 30 °F 15 °F (2008)
Degree Days  
Heating Degree Days 22    
Month to date heating degree days  
Since 1 July heating degree days  
Cooling Degree Days 0    
Month to date cooling degree days  
Year to date cooling degree days  
Moisture  
Dew Point 40 °F    
Average Humidity 84    
Maximum Humidity 100    
Minimum Humidity 61    
Precipitation  
Precipitation 0.00 in 0.09 in 0.40 in (2007)
Month to date precipitation 1.96  
Year to date precipitation 28.94  
Snow  
Snow 0.00 in - - ()
Month to date snowfall  
Since 1 July snowfall  
Since 1 September snowfall  
Snow Depth -    
Sea Level Pressure  
Sea Level Pressure 30.15 in    
Wind  
Wind Speed 2 mph (SSW)    
Max Wind Speed 13 mph    
Max Gust Speed -    
Visibility 6 miles    
Events Fog    
T = Trace of Precipitation, MM = Missing Value Source: NWS Daily Summary

Daily Weather History Graph

Daily Weather History Graph

Search for Another Location

Airport:

Trip Planner

Search our weather history database for the weather conditions in past years. The results will help you decide how hot, cold, wet, or windy it might be!

Date:

Astronomy

Nov. 21, 2012 Rise Set
Actual Time 7:39 AM EST 5:06 PM EST
Civil Twilight 7:07 AM EST 5:37 PM EST
Nautical Twilight 6:32 AM EST 6:12 PM EST
Astronomical Twilight 5:58 AM EST 6:47 PM EST
Moon 1:33 PM EST (11/21) 12:45 AM EST (11/21)
Length of Visible Light 10h 29m
Length of Day
9h 26m
First Quarter, 61% of the Moon is Illuminated
Nov 21
First Quarter
Nov 28
Full
Dec 6
Last Quarter
Dec 13
New
Dec 20
First Quarter

Hourly Weather History & Observations

Time (EST) Temp. Windchill Dew Point Humidity Pressure Visibility Wind Dir Wind Speed Gust Speed Precip Events Conditions
12:14 AM 43.9 °F - 40.1 °F 87% 30.15 in 10.0 mi Calm Calm - N/A   Overcast
12:34 AM 43.9 °F - 40.1 °F 87% 30.15 in 10.0 mi Calm Calm - N/A   Overcast
12:54 AM 43.7 °F - 40.5 °F 88% 30.15 in 10.0 mi Calm Calm - N/A   Overcast
1:14 AM 43.5 °F - 40.1 °F 88% 30.15 in 10.0 mi Calm Calm - N/A   Overcast
1:34 AM 43.7 °F - 40.5 °F 88% 30.15 in 10.0 mi Calm Calm - N/A   Overcast
1:54 AM 43.7 °F - 40.1 °F 87% 30.16 in 10.0 mi Calm Calm - N/A   Overcast
2:14 AM 43.3 °F - 40.1 °F 88% 30.16 in 10.0 mi Calm Calm - N/A   Overcast
2:34 AM 41.9 °F - 39.2 °F 90% 30.16 in 10.0 mi Calm Calm - N/A   Overcast
2:54 AM 40.5 °F - 38.5 °F 93% 30.17 in 10.0 mi Calm Calm - N/A   Overcast
3:15 AM 40.3 °F - 38.5 °F 93% 30.17 in 10.0 mi Calm Calm - N/A   Overcast
3:34 AM 39.6 °F - 38.1 °F 95% 30.16 in 10.0 mi Calm Calm - N/A   Mostly Cloudy
3:54 AM 39.2 °F - 38.5 °F 97% 30.16 in 7.0 mi Calm Calm - N/A   Clear
4:15 AM 36.5 °F - 35.8 °F 97% 30.16 in 4.0 mi Calm Calm - N/A   Clear
4:34 AM 35.1 °F - 34.7 °F 99% 30.16 in 2.0 mi Calm Calm - N/A   Clear
4:54 AM 34.5 °F - 34.2 °F 99% 30.15 in 0.5 mi Calm Calm - N/A Fog Fog
5:14 AM 34.2 °F - 34.0 °F 99% 30.17 in 0.2 mi Calm Calm - N/A Fog Fog
5:34 AM 32.2 °F - 32.0 °F 99% 30.17 in 0.5 mi Calm Calm - N/A Fog Fog
5:54 AM 32.4 °F - 32.2 °F 99% 30.18 in 1.2 mi Calm Calm - N/A   Mist
6:14 AM 32.0 °F - 32.0 °F 100% 30.19 in 3.0 mi Calm Calm - N/A   Clear
6:34 AM 31.8 °F - 31.8 °F 100% 30.19 in 5.0 mi Calm Calm - N/A   Clear
6:55 AM 32.0 °F - 32.0 °F 100% 30.19 in 7.0 mi Calm Calm - N/A   Clear
7:14 AM 31.5 °F - 31.5 °F 100% 30.20 in 1.5 mi Calm Calm - N/A   Mist
7:34 AM 31.1 °F - 31.1 °F 100% 30.20 in 3.0 mi Calm Calm - N/A   Mostly Cloudy
7:55 AM 31.6 °F - 31.6 °F 100% 30.20 in 4.0 mi Calm Calm - N/A   Mostly Cloudy
8:14 AM 31.3 °F - 31.3 °F 100% 30.21 in 4.0 mi Calm Calm - N/A   Scattered Clouds
8:34 AM 31.6 °F - 31.6 °F 100% 30.21 in 3.0 mi Calm Calm - N/A   Clear
8:48 AM 32.7 °F - 32.7 °F 100% 30.21 in 4.0 mi Calm Calm - N/A   Clear
9:14 AM 36.1 °F - 35.6 °F 98% 30.21 in 7.0 mi Calm Calm - N/A   Clear
9:35 AM 39.7 °F - 38.5 °F 95% 30.22 in 5.0 mi Calm Calm - N/A   Clear
9:54 AM 42.1 °F - 39.9 °F 92% 30.21 in 5.0 mi Calm Calm - N/A   Clear
10:15 AM 45.1 °F - 41.4 °F 87% 30.22 in 5.0 mi Calm Calm - N/A   Clear
10:34 AM 47.5 °F - 42.8 °F 84% 30.22 in 5.0 mi Calm Calm - N/A   Haze
10:54 AM 49.5 °F - 43.7 °F 81% 30.22 in 5.0 mi Calm Calm - N/A   Haze
11:15 AM 50.9 °F - 43.2 °F 75% 30.21 in 7.0 mi SSW 3.5 mph - N/A   Clear
11:34 AM 52.7 °F - 43.3 °F 70% 30.21 in 7.0 mi Calm Calm - N/A   Clear
11:54 AM 53.6 °F - 43.0 °F 67% 30.20 in 7.0 mi SSW 5.8 mph - N/A   Clear
12:14 PM 54.5 °F - 42.8 °F 65% 30.19 in 7.0 mi South 4.6 mph - N/A   Clear
12:34 PM 54.9 °F - 42.6 °F 63% 30.18 in 7.0 mi SW 5.8 mph - N/A   Clear
12:55 PM 55.6 °F - 42.6 °F 62% 30.17 in 10.0 mi SW 6.9 mph - N/A   Clear
1:14 PM 55.9 °F - 42.8 °F 61% 30.17 in 10.0 mi SSW 5.8 mph - N/A   Clear
1:34 PM 56.5 °F - 43.0 °F 61% 30.16 in 10.0 mi SSW 5.8 mph - N/A   Clear
1:55 PM 56.7 °F - 43.2 °F 61% 30.15 in 7.0 mi SSW 9.2 mph - N/A   Clear
2:14 PM 56.5 °F - 43.5 °F 62% 30.14 in 7.0 mi South 9.2 mph - N/A   Clear
2:35 PM 56.1 °F - 43.2 °F 62% 30.14 in 7.0 mi SSW 9.2 mph - N/A   Clear
2:54 PM 55.9 °F - 43.3 °F 63% 30.14 in 7.0 mi SSW 8.1 mph - N/A   Clear
3:14 PM 55.9 °F - 43.7 °F 63% 30.14 in 7.0 mi SSW 12.7 mph - N/A   Clear
3:35 PM 55.4 °F - 43.7 °F 65% 30.13 in 7.0 mi SSW 9.2 mph - N/A   Clear
3:54 PM 54.7 °F - 43.7 °F 66% 30.13 in 7.0 mi SSW 8.1 mph - N/A   Clear
4:15 PM 54.3 °F - 43.7 °F 67% 30.13 in 7.0 mi SSW 9.2 mph - N/A   Clear
4:34 PM 53.4 °F - 43.2 °F 68% 30.12 in 7.0 mi SSW 6.9 mph - N/A   Clear
5:00 PM 52.5 °F - 43.2 °F 70% 30.13 in 7.0 mi South 4.6 mph - N/A   Clear
5:14 PM 50.9 °F - 42.4 °F 73% 30.13 in 5.0 mi SSW 4.6 mph - N/A   Haze
5:35 PM 50.9 °F - 42.8 °F 74% 30.12 in 7.0 mi South 3.5 mph - N/A   Clear
5:55 PM 50.0 °F - 42.4 °F 75% 30.12 in 7.0 mi South 4.6 mph - N/A   Clear
6:14 PM 49.8 °F - 42.8 °F 77% 30.12 in 7.0 mi South 4.6 mph - N/A   Clear
6:35 PM 49.3 °F - 42.8 °F 78% 30.12 in 7.0 mi South 4.6 mph - N/A   Clear
6:54 PM 49.1 °F - 42.8 °F 79% 30.12 in 7.0 mi South 3.5 mph - N/A   Clear
7:14 PM 48.6 °F - 42.6 °F 80% 30.12 in 7.0 mi SSW 3.5 mph - N/A   Clear
7:35 PM 47.3 °F - 42.3 °F 83% 30.12 in 7.0 mi South 4.6 mph - N/A   Clear
7:54 PM 47.3 °F - 42.4 °F 83% 30.12 in 7.0 mi South 3.5 mph - N/A   Clear
8:14 PM 46.8 °F - 42.4 °F 85% 30.12 in 7.0 mi SSW 3.5 mph - N/A   Clear
8:35 PM 45.5 °F - 42.1 °F 88% 30.12 in 5.0 mi Calm Calm - N/A   Clear
8:54 PM 44.6 °F - 42.1 °F 91% 30.11 in 5.0 mi Calm Calm - N/A   Clear
9:14 PM 43.7 °F 42.1 °F 41.9 °F 93% 30.12 in 5.0 mi South 3.5 mph - N/A   Clear
9:35 PM 43.0 °F 40.3 °F 41.4 °F 94% 30.12 in 5.0 mi SSW 4.6 mph - N/A   Clear
9:54 PM 44.6 °F 43.1 °F 42.4 °F 92% 30.11 in 5.0 mi South 3.5 mph - N/A   Clear
10:15 PM 45.0 °F 41.2 °F 42.6 °F 91% 30.10 in 5.0 mi South 6.9 mph - N/A   Clear
10:35 PM 44.6 °F 41.4 °F 42.3 °F 91% 30.09 in 5.0 mi South 5.8 mph - N/A   Clear
10:54 PM 44.6 °F 40.7 °F 42.3 °F 91% 30.09 in 5.0 mi South 6.9 mph - N/A   Clear
11:15 PM 44.4 °F 41.2 °F 42.1 °F 91% 30.09 in 5.0 mi South 5.8 mph - N/A   Clear
11:35 PM 44.6 °F 40.7 °F 42.6 °F 93% 30.08 in 4.0 mi South 6.9 mph - N/A   Clear
11:54 PM 44.6 °F 40.7 °F 42.8 °F 93% 30.08 in 4.0 mi SSW 6.9 mph - N/A   Clear